STARLINK-2607, 48391

Orbit data source: Space-Track

STARLINK-2607, 48391 is a payload satellite owned by SpaceX/Seattle (US) in LEO that was launched on Tue, 04 May 2021 UTC via an FALCON 9 launch vehicle from the Air Force Eastern Test Range (AFETR). Payload-class satellites include a variety of spacecraft equipped with specific instruments for various scientific and technological missions. These include communications satellites like Starlink; space stations such as the ISS; scientific satellites like the Hubble; Earth observation satellites from companies like Planet Labs, Umbra, and HawkEye 360; GPS; miniature CubeSats for education and research; and military/defense satellites.

Loading next visibility...
Identifier
48391, 2021-038AQ
Orbit
LEO
Country
Flag of USUS
Related business
Manufacturer
SpaceX/Seattle
Mission
Operational Commercial Communications
Bus & Motor
STARLINK, Unknown motor
Mass
260 kg wet, ~248 kg dry
Launch date (UTC)
2021-05-04 (5 years ago)
Launch vehicle
FALCON 9
Launch site
Air Force Eastern Test Range (AFETR)
Object type
Payload
Rocket body
Debris
Shape & HBR
Box + 1 Pan, 10.1 m
Radar Cross Section
13.562 m², Large (>1 m²)

Expand to show TLE details & history
Last TLE update: 2 days ago

TLE from 2 days ago
0 STARLINK-2607
1 48391U 21038AQ  26171.36287610 -.00000358  00000-0  22355-6 0  9999
2 48391  53.1587 215.3566 0001143  81.5279 278.5852 15.31700609284389
Epoch: 2026-06-20T08:42Z
TLE epoch observation values (Epoch: 2026-06-20T08:42:32.495Z)
Latitude
0.00001°
Longitude
176.14263°
Altitude
471.522 km
Speed
7.632 km/s
True Right ascension
14h 21m 25s
True Declination
0° 00' 00"
Sunlit
Object was in full shadow at epoch
Visualization orbit readout
Latitude
Unknown
Longitude
Unknown
Altitude
Unknown
Speed
Unknown
Apparent Right ascension
Unknown
Apparent Declination
Unknown
Sunlit
N/A
Visualization observer readout
Local Sidereal Time
21:30:32
Azimuth
Unknown
Elevation
Unknown
Doppler factor
Unknown
Orbital elements
Apogee altitude
471.778 km
Perigee altitude
470.212 km
Semi-major axis
6,849.132 km
Eccentricity
0.00011
Inclination
53.1587°
RAAN
215.3566°
Arg. of periapsis
81.5279°
True anomaly
278.57225°
Mean anomaly
278.5852°
Eccentric anomaly
278.57872°
Mean motion
3.82904 °/min
Orbital period
94.02 mins
BSTAR
2.2355e-7
Loading maneuver chart data...
Computing Atmospheric mass density...

Documentation

Showing up to 5 results
|